EW0561 Weather Reports


Display with metric or nautical units.
time (UTC)temp
F
wind
direction
speed
MPH
gust
MPH
rain 1hr
in
rain 24hr
in
rain mn
in
humidity
%
barometer
mb
20260510141520 69 323 0.0 0.0 0.00 1.12 0.00 96 1016.9
20260510140015 68 254 0.0 0.0 0.00 1.12 0.00 96 1016.8
20260510134514 68 254 0.0 0.0 0.00 1.24 0.00 96 1016.8
20260510133012 68 254 0.0 0.0 0.00 1.24 0.00 96 1016.6
20260510131509 68 254 0.0 0.0 0.00 1.24 0.00 96 1016.4
20260510130008 67 254 0.0 0.0 0.00 1.24 0.00 96 1016.2
20260510124506 67 253 0.0 2.0 0.00 2.43 0.00 95 1016.2
20260510123005 67 242 0.0 0.0 0.00 2.43 0.00 96 1015.8
20260510121600 66 242 0.0 0.0 0.00 2.43 0.00 96 1015.5
20260510120057 66 242 0.0 0.0 0.00 2.43 0.00 95 1015.2
20260510114557 66 242 0.0 0.0 0.00 2.43 0.00 95 1015.0
20260510113051 66 242 0.0 0.0 0.00 2.43 0.00 95 1014.6
20260510111548 66 242 0.0 0.0 0.00 2.43 0.00 95 1014.3
20260510110051 66 242 0.0 0.0 0.00 2.43 0.00 95 1014.1
20260510104543 66 242 0.0 0.0 0.00 2.43 0.00 95 1013.7
20260510103047 66 242 0.0 0.0 0.00 2.43 0.00 95 1013.5
20260510101540 66 242 0.0 0.0 0.00 2.43 0.00 95 1013.4
20260510100057 66 242 0.0 0.0 0.00 2.43 0.00 95 1013.3
20260510094541 66 242 0.0 0.0 0.00 2.43 0.00 95 1013.0
20260510093046 66 242 0.0 0.0 0.00 2.43 0.00 96 1013.1
20260510091539 66 242 0.0 0.0 0.00 2.43 0.00 95 1013.1
20260510090038 67 242 0.0 0.0 0.00 2.43 0.00 95 1013.3
20260510084535 67 242 0.0 0.0 0.00 2.45 0.00 95 1013.3
20260510083042 67 242 0.0 0.0 0.00 2.45 0.00 95 1013.2
20260510081536 67 242 0.0 0.0 0.00 2.45 0.00 95 1013.1
20260510080031 67 242 0.0 0.0 0.00 2.45 0.00 95 1012.9
20260510074531 67 242 0.0 0.0 0.00 2.59 0.00 95 1012.7
20260510073029 67 242 0.0 0.0 0.00 2.59 0.00 95 1012.7
20260510071536 67 242 0.0 0.0 0.00 2.59 0.00 95 1012.5
20260510070026 68 242 0.0 0.0 0.00 2.59 0.00 95 1012.6
20260510064524 68 242 0.0 0.0 0.00 2.62 0.00 96 1012.7
20260510063025 68 242 0.0 0.0 0.00 2.62 0.00 95 1012.9
20260510061536 68 242 0.0 0.0 0.00 2.62 0.00 95 1013.0
20260510060021 68 242 0.0 0.0 0.00 2.62 0.00 95 1013.0
20260510054520 68 242 0.0 0.0 0.00 2.67 0.00 95 1013.0
20260510053019 68 242 0.0 0.0 0.00 2.67 0.00 95 1013.0
20260510051518 68 242 0.0 0.0 0.00 2.67 0.00 95 1013.1
20260510050014 68 242 0.0 0.0 0.00 2.67 0.00 95 1013.0
20260510044514 69 242 0.0 0.0 0.00 2.74 2.67 95 1012.9
20260510043019 69 242 0.0 0.0 0.00 2.74 2.67 95 1012.8
20260510041515 69 242 0.0 0.0 0.00 2.74 2.67 95 1012.7
20260510040046 69 242 0.0 0.0 0.00 2.74 2.67 95 1013.0
20260510034546 69 242 0.0 0.0 0.00 2.74 2.67 95 1012.6
20260510033105 69 242 0.0 0.0 0.00 2.74 2.67 95 1013.0
20260510031550 69 242 0.0 0.0 0.00 2.74 2.67 95 1013.6
20260510030043 69 242 0.0 0.0 0.00 2.74 2.67 95 1013.3
20260510024546 69 242 0.0 0.0 0.00 2.74 2.67 95 1013.3
20260510023041 69 242 0.0 0.0 0.00 2.74 2.67 95 1012.9
20260510021540 69 242 0.0 0.0 0.00 2.74 2.67 95 1012.7
20260510020042 69 242 0.0 0.0 0.00 2.74 2.67 95 1013.0
20260510014539 69 242 0.0 0.0 0.01 2.75 2.67 95 1013.3
20260510013039 69 242 0.0 0.0 0.03 2.75 2.67 95 1012.5
20260510011550 69 242 0.0 0.0 0.03 2.75 2.67 95 1012.3
20260510010037 69 242 0.0 1.0 0.03 2.75 2.67 95 1011.9
20260510004542 68 161 0.0 0.0 0.03 2.74 2.66 95 1011.6
20260510003058 68 144 0.0 0.0 0.02 2.72 2.64 95 1012.3
20260510001540 68 212 0.0 0.0 0.03 2.72 2.64 95 1012.1
20260510000040 69 212 0.0 0.0 0.03 2.72 2.64 95 1011.3
20260509234547 69 212 0.0 0.0 0.03 2.71 2.63 95 1012.1
20260509233034 69 212 0.0 0.0 0.03 2.70 2.62 95 1011.8
20260509231545 68 271 0.0 0.0 0.03 2.69 2.61 95 1012.1
20260509230036 69 271 0.0 0.0 0.06 2.69 2.61 95 1012.2
20260509224535 68 271 0.0 0.0 0.07 2.78 2.60 95 1012.2
20260509223034 68 271 0.0 0.0 0.07 2.77 2.59 95 1011.6
20260509221531 68 271 0.0 0.0 0.06 2.76 2.58 95 1011.3
20260509220031 68 271 0.0 0.0 0.04 2.73 2.54 95 1012.2
20260509214531 68 271 0.0 0.0 0.03 2.78 2.52 95 1011.4
20260509213029 68 271 0.0 0.0 0.05 2.77 2.52 95 1011.3
20260509211528 68 271 0.0 0.0 0.08 2.77 2.52 95 1011.4
20260509210028 68 271 0.0 0.0 0.12 2.76 2.50 95 1011.4
20260509204529 68 273 0.0 0.0 0.15 2.97 2.50 95 1010.6
20260509203033 68 208 0.0 0.0 0.18 2.94 2.47 95 1011.7
20260509201525 68 237 0.0 0.0 0.22 2.91 2.44 95 1010.9
20260509200024 67 242 0.0 0.0 0.21 2.85 2.38 95 1012.3
20260509194528 67 244 0.0 0.0 0.26 2.99 2.35 95 1012.8
20260509193022 67 244 0.0 0.0 0.26 2.93 2.29 95 1012.6
20260509191522 67 245 0.0 0.0 0.20 2.86 2.22 95 1012.4
20260509190020 67 245 0.0 0.0 0.16 2.80 2.16 95 1012.3
20260509184520 67 198 0.0 0.0 0.09 2.73 2.08 95 1012.6
20260509183024 67 199 0.0 0.0 0.06 2.68 2.02 95 1012.8
20260509181524 67 199 0.0 0.0 0.06 2.66 2.00 95 1012.6
20260509180017 67 198 0.0 0.0 0.07 2.65 2.00 95 1012.4
20260509174517 67 198 0.0 0.0 0.07 2.64 1.99 95 1012.5
20260509173023 66 198 0.0 0.0 0.09 2.62 1.97 95 1012.1
20260509171519 66 198 0.0 0.0 0.08 2.60 1.95 95 1012.8
20260509170015 66 198 0.0 0.0 0.08 2.58 1.93 95 1012.5
20260509164513 66 198 0.0 0.0 0.10 2.57 1.92 95 1012.5
20260509163012 66 198 0.0 0.0 0.10 2.52 1.88 95 1012.6
20260509161511 66 198 0.0 0.0 0.12 2.52 1.87 95 1012.6
20260509160010 66 198 0.0 0.0 0.11 2.50 1.85 95 1012.8
20260509154509 66 198 0.0 0.0 0.09 2.47 1.82 95 1013.4
20260509153008 66 198 0.0 0.0 0.09 2.43 1.78 95 1013.5
20260509151506 66 228 0.0 0.0 0.12 2.40 1.75 95 1013.1
20260509150012 66 236 0.0 0.0 0.19 2.39 1.74 95 1012.9
20260509144504 66 229 0.0 0.0 0.20 2.38 1.73 95 1012.5
20260509143002 67 228 0.0 1.0 0.20 2.34 1.69 95 1012.7